Location: Unspecified
(51.0950°N, 12.9690°E)
Time: 04:12:08
(UTC+00:00)

EO-79 - Pass Details

Date: 26 April 2024
Orbit: 562 x 575 km, 98.0° (Epoch: 27 May)

Event Time Altitude Azimuth Distance (km) Brightness Sun altitude
Rises 15:18:30 0° 246° (WSW) 2,762 ? 27.2°
Enters shadow 15:46:50 -43° 18° (NNE) 9,544 ? 22.9°
Exits shadow 16:18:53 -69° 164° (SSE) 12,515 ? 17.8°
Reaches altitude 10° 01:16:59 10° 48° (NE) 1,897 ? -19.3°
Maximum altitude 01:19:44 17° 91° (E) 1,480 ? -19.0°
Drops below altitude 10° 01:22:29 10° 133° (SE) 1,888 ? -18.8°
